Wind_Speed
7 7 6 6 5 4 1 1 2 5 7 7 9 10 11 10 8 8 8 6 6 6 6 6 6 6 5 5 5 5 5 5 6 6 6 5 5 4 4 5 4 2 3 4 4 4 4 4 3
7 7 7 6 6 4 2 1 1 5 7 7 9 11 11 9 9 8 8 7 7 7 7 6 6 6 5 5 5 5 5 6 6 6 5 6 5 5 5 5 5 4 3 4 4 4 4 4 4
8 8 7 6 5 4 2 0 4 5 7 8 10 10 10 8 9 9 9 8 7 7 7 7 6 6 5 5 5 5 6 6 6 6 5 6 5 6 6 6 6 5 4 4 5 5 5 5 5
8 8 7 6 6 4 1 2 4 6 9 10 11 11 10 9 10 10 9 8 8 8 7 7 7 7 6 6 6 6 6 7 7 7 7 7 6 7 6 6 7 6 5 5 5 6 6 6 6
9 9 7 7 7 4 2 3 4 7 9 11 11 11 11 10 10 10 10 8 8 8 8 8 7 7 7 7 7 7 7 7 7 7 7 7 7 7 7 7 7 7 6 6 6 6 7 7 7
9 9 8 7 7 5 2 2 5 8 10 11 12 11 11 11 10 11 10 8 8 7 7 7 8 7 7 7 7 8 8 8 8 8 8 8 8 8 7 8 8 8 7 7 6 6 6 7 7
10 9 8 8 6 5 3 4 5 8 10 12 12 11 11 11 11 10 11 11 9 8 7 8 8 8 7 7 8 8 8 8 8 8 8 8 8 8 8 8 8 8 8 8 7 7 7 7 7
11 10 10 9 7 6 5 5 6 9 11 11 12 12 12 11 11 11 11 11 9 8 8 8 8 8 7 8 8 8 8 9 9 8 8 8 8 8 9 10 9 9 8 9 8 8 8 8 8
13 12 11 10 8 6 5 6 8 11 11 11 12 12 12 12 12 11 11 10 9 9 8 8 8 7 8 8 8 8 8 9 9 9 9 8 9 9 10 10 10 9 9 9 8 9 10 10 9
14 12 11 11 10 8 8 9 11 12 12 12 13 13 13 12 12 11 11 11 10 9 9 8 8 8 8 8 8 9 9 9 9 9 9 8 9 10 10 10 10 9 9 9 9 10 10 10 10
15 13 13 12 12 12 11 10 12 12 12 11 12 13 14 13 12 12 11 10 10 10 9 8 8 9 9 9 9 9 10 10 10 9 10 9 9 10 10 10 10 10 9 9 9 9 9 9 9
16 15 15 14 14 14 13 12 12 13 11 12 12 13 13 13 13 12 12 11 10 10 10 10 10 10 10 10 10 10 10 9 9 9 10 10 10 10 10 10 10 10 10 9 9 10 10 10 10
18 16 16 16 15 14 14 13 12 12 12 11 12 13 13 13 13 12 11 11 10 9 10 11 11 10 10 10 11 11 11 10 10 9 10 10 11 11 10 10 10 10 9 9 10 10 11 11 11
19 19 17 18 17 16 15 14 13 13 12 11 12 12 12 12 12 12 12 11 10 10 10 12 12 11 11 11 11 11 12 11 10 10 10 10 11 11 11 11 10 10 10 10 10 10 10 11 11
20 19 18 18 18 18 17 15 13 12 12 11 12 12 12 11 11 12 13 13 12 12 12 13 13 13 13 12 12 12 12 11 10 10 10 11 11 11 11 11 10 10 11 10 10 10 10 10 10
20 19 18 17 17 17 16 14 13 13 13 13 13 13 13 12 12 13 13 13 13 13 13 14 14 14 14 13 13 12 11 11 10 10 11 11 11 10 10 10 10 10 11 11 11 10 9 10 11
20 18 17 16 16 16 16 15 14 14 14 13 13 14 14 14 14 14 13 13 13 13 13 14 14 14 14 13 13 12 11 11 11 11 11 11 10 10 9 9 10 10 10 11 11 12 11 12 12
19 18 17 16 16 17 16 15 15 14 15 13 14 14 14 15 15 14 14 14 14 13 13 13 14 14 14 13 13 12 11 11 11 11 11 11 10 10 9 9 9 10 10 11 11 12 12 12 12
21 21 19 17 17 18 16 15 15 16 17 15 14 15 15 15 15 15 14 14 14 14 14 14 14 14 14 14 13 12 11 11 11 11 12 11 10 10 10 10 10 10 10 11 11 12 12 12 13
22 22 20 19 19 19 18 17 16 16 17 17 16 16 15 16 16 16 15 15 16 16 15 15 15 15 15 14 13 12 11 11 11 11 11 11 10 10 11 10 10 11 10 11 10 11 12 12 12
22 21 21 19 18 18 18 18 17 16 18 18 17 16 16 16 16 16 16 16 16 16 16 15 16 15 15 13 12 11 11 11 11 10 10 10 10 10 10 10 10 11 11 10 10 10 11 12 12
23 21 21 19 19 19 19 19 18 18 19 19 18 16 16 17 17 16 16 16 16 16 16 16 16 15 14 13 11 11 10 10 10 9 9 10 10 10 10 10 10 11 11 10 10 10 10 11 12
22 20 21 19 20 21 20 21 20 19 18 19 17 17 17 17 16 15 15 15 16 16 16 16 16 15 14 12 11 10 9 9 8 9 9 9 9 10 9 10 10 11 11 10 10 10 10 11 12
23 22 22 22 22 23 20 22 21 18 18 18 17 16 17 16 16 15 15 15 16 16 16 16 15 14 13 11 10 10 9 8 8 8 8 8 9 10 10 10 10 11 11 10 10 10 11 11 12
25 24 24 24 24 22 20 23 21 18 18 17 16 17 17 16 15 15 15 16 16 16 16 15 15 14 13 11 10 10 9 8 7 7 7 8 9 9 9 9 10 10 10 10 10 11 11 11 11
25 26 26 25 23 21 21 23 21 19 18 17 16 17 17 17 15 15 15 16 16 16 16 15 15 15 14 12 11 10 9 8 7 7 8 8 8 8 7 8 9 9 10 10 11 11 11 11 11
26 26 25 24 23 23 22 21 18 18 17 16 16 16 16 15 14 14 15 15 16 15 15 16 15 15 14 13 12 10 10 8 8 7 7 7 7 7 7 7 8 9 9 10 10 11 11 11 11
27 25 25 27 25 24 22 20 19 18 18 16 15 14 14 14 15 15 14 14 15 15 15 15 15 14 11 11 11 10 10 8 8 7 7 7 6 6 7 7 7 8 8 9 9 10 10 10 11
27 26 27 27 26 25 23 21 20 19 18 17 15 15 14 14 15 16 15 15 14 14 13 13 13 13 11 10 10 9 9 9 9 8 8 8 7 6 6 6 6 7 7 8 9 9 9 10 11
28 27 27 27 27 25 24 22 21 20 18 17 16 16 15 15 15 15 15 15 14 14 14 13 13 12 12 11 11 10 10 10 10 9 9 9 8 8 8 7 6 6 6 7 8 8 8 8 9
Wind_Direction
180 177 169 157 154 143 133 86 54 21 360 344 336 338 340 342 340 342 338 337 349 351 347 343 340 337 329 321 316 313 310 309 312 311 301 298 295 294 293 291 290 274 238 226 223 223 239 251 252
192 187 179 171 164 165 175 140 27 0 348 339 335 336 336 339 341 341 337 338 345 348 344 342 336 330 323 314 310 305 302 303 308 311 304 302 291 283 288 292 284 271 251 240 237 234 242 253 258
202 196 191 189 168 165 152 98 7 355 340 335 334 336 335 340 342 341 338 343 348 346 341 340 334 325 320 312 306 299 295 295 298 301 300 299 293 287 286 286 283 274 261 251 245 240 242 249 251
209 205 201 197 188 183 173 331 1 348 336 330 331 335 333 336 340 341 339 342 347 346 341 338 333 327 319 308 303 297 293 290 290 291 291 290 290 288 280 283 279 278 270 267 260 249 244 248 253
217 213 203 201 210 203 187 299 328 330 331 328 326 333 333 336 338 339 341 343 341 340 332 332 331 327 320 308 301 298 295 291 287 285 282 284 288 285 277 281 277 277 272 273 270 262 254 248 246
221 217 205 208 222 217 230 277 310 313 321 323 323 329 331 335 334 335 335 334 340 336 330 325 324 325 319 309 304 301 298 295 290 286 281 281 288 286 279 277 274 273 276 272 269 265 257 246 250
225 213 203 210 224 225 255 288 301 305 315 315 317 319 323 332 334 337 335 331 338 335 327 323 321 323 318 314 311 308 304 299 294 288 284 283 283 284 279 276 274 269 266 265 265 263 253 252 251
225 215 209 212 225 231 259 284 295 299 307 307 309 312 320 331 335 333 328 326 329 329 322 322 322 319 314 313 310 307 304 302 296 289 285 284 283 282 278 279 274 266 262 260 263 261 257 253 250
224 217 213 214 224 235 266 266 276 287 297 303 306 308 317 324 330 331 326 325 322 322 319 322 320 317 311 310 309 305 301 299 293 289 285 283 281 282 282 280 275 268 262 260 261 266 263 256 249
223 217 215 224 235 245 262 270 278 280 289 300 304 308 314 316 322 326 325 323 324 323 322 323 320 315 310 307 309 309 302 299 294 289 287 284 280 282 280 275 273 268 262 260 258 259 258 253 248
226 221 221 230 238 245 259 270 273 276 286 300 302 307 313 315 315 320 325 324 325 326 324 320 319 313 309 308 309 309 305 298 292 289 289 285 281 281 277 270 272 266 264 263 258 253 254 251 244
229 225 226 231 238 245 255 266 269 274 281 294 302 305 310 317 316 315 319 323 325 326 322 317 315 312 309 305 303 304 303 298 291 287 285 283 285 282 275 269 273 268 264 262 257 253 253 247 240
230 230 232 233 237 246 253 261 268 272 278 290 298 305 308 313 315 317 320 322 324 325 322 316 316 311 306 302 299 297 298 296 294 290 286 283 285 281 276 272 269 262 261 258 254 253 252 249 242
232 232 230 231 237 244 251 257 262 272 279 290 296 302 307 308 312 315 316 316 320 324 323 321 315 309 306 301 300 298 296 293 290 287 284 281 285 283 278 272 266 259 258 259 256 251 250 247 240
233 232 231 233 236 240 246 252 260 268 275 286 294 300 305 306 311 314 314 313 316 322 320 319 317 310 307 305 302 299 295 290 287 285 283 281 282 282 275 268 260 255 256 257 258 255 253 244 239
234 233 234 233 238 240 245 252 257 262 269 278 288 294 299 303 310 310 311 311 313 317 318 317 317 314 310 308 305 298 294 288 285 283 282 281 281 281 280 272 259 255 257 258 258 252 252 243 243
234 234 234 235 239 243 249 254 255 260 264 272 281 287 294 300 304 306 309 310 312 314 315 315 314 314 310 304 304 299 295 289 285 282 280 278 281 281 278 274 264 259 259 258 255 253 250 248 244
232 234 233 232 241 246 251 256 257 262 267 269 276 284 291 295 299 302 305 306 307 309 311 313 312 312 311 306 301 297 295 291 288 283 278 276 279 281 279 273 267 266 263 259 257 254 253 250 248
230 232 232 233 240 248 252 258 261 259 263 265 273 280 288 291 296 297 300 301 303 305 308 309 308 308 308 304 295 292 291 290 290 288 280 276 279 281 278 270 265 266 268 262 260 257 254 253 252
231 234 233 237 244 249 254 258 259 258 261 265 272 281 286 290 292 294 295 296 300 303 304 305 304 305 305 303 297 290 287 286 289 287 282 277 279 282 279 274 266 265 266 265 260 256 253 253 252
231 233 235 239 241 249 258 260 257 261 263 264 271 278 283 288 288 290 292 294 296 298 300 303 303 303 302 301 296 291 292 290 288 285 281 278 279 283 282 273 265 266 267 266 258 255 252 250 251
232 232 236 239 241 248 253 261 257 261 268 269 269 276 282 285 285 286 289 292 294 295 296 299 299 300 299 296 294 290 292 292 288 282 279 277 277 279 278 272 267 264 268 266 262 257 255 253 253
232 231 234 235 239 246 250 258 262 266 269 271 269 275 279 278 282 286 288 292 293 294 295 295 295 296 296 292 291 288 287 287 284 279 276 275 276 279 277 272 263 259 263 265 263 259 256 257 258
229 228 230 233 238 244 247 257 263 264 267 268 269 274 276 275 276 280 288 291 292 295 295 294 292 291 289 286 284 284 284 281 284 284 278 278 281 284 280 273 263 258 257 261 263 262 260 261 260
227 227 229 232 237 243 248 256 263 265 264 265 270 271 274 275 275 281 286 290 291 295 294 291 290 288 287 281 277 276 276 276 277 283 281 280 283 283 280 273 266 260 254 259 263 265 267 263 258
226 228 230 234 238 241 245 254 260 260 261 260 266 272 271 274 274 281 287 289 291 295 292 290 289 287 285 281 276 268 267 273 279 284 284 279 284 284 283 275 268 265 259 260 263 265 268 262 260
225 227 231 236 239 244 246 252 254 255 258 257 263 271 270 272 273 277 281 288 293 295 294 290 288 286 283 275 273 263 261 270 275 281 284 279 276 283 283 280 276 272 265 264 268 266 266 264 261
227 227 229 234 239 242 245 249 251 254 258 264 266 272 272 272 279 279 278 283 288 292 293 294 287 281 280 271 266 264 257 262 265 272 278 281 278 285 288 280 279 277 269 267 269 269 267 266 264
224 224 230 235 239 243 245 246 251 256 260 266 268 270 272 275 282 284 283 286 289 292 293 294 291 288 280 274 268 269 265 266 268 271 273 277 278 284 289 289 291 282 276 269 265 266 268 266 263
228 229 230 234 238 243 246 249 252 257 258 262 268 272 271 269 275 281 280 288 290 291 295 294 291 290 286 276 267 264 263 263 266 268 271 275 277 279 283 284 287 286 283 279 271 269 272 272 262
Height
5903 5904 5905 5905 5906 5905 5904 5904 5904 5903 5903 5903 5903 5903 5902 5902 5902 5902 5899 5896 5895 5893 5893 5892 5891 5890 5890 5889 5889 5888 5888 5888 5887 5887 5886 5886 5885 5885 5884 5883 5882 5881 5881 5881 5882 5882 5882 5882 5882
5903 5903 5905 5905 5904 5903 5904 5904 5903 5903 5903 5903 5902 5903 5902 5901 5900 5899 5897 5895 5894 5893 5892 5891 5891 5890 5889 5889 5888 5888 5887 5887 5887 5886 5886 5885 5885 5884 5884 5883 5882 5882 5881 5882 5882 5882 5882 5881 5881
5902 5902 5904 5904 5903 5903 5903 5903 5903 5903 5901 5902 5902 5902 5901 5900 5899 5897 5896 5894 5893 5892 5892 5891 5890 5889 5888 5888 5888 5887 5887 5886 5886 5885 5885 5884 5884 5884 5883 5883 5882 5882 5881 5881 5881 5881 5881 5881 5881
5901 5902 5903 5903 5902 5902 5902 5902 5902 5902 5901 5901 5901 5901 5900 5899 5898 5896 5894 5893 5892 5891 5891 5890 5889 5888 5888 5887 5887 5886 5886 5885 5885 5884 5884 5883 5883 5883 5883 5882 5882 5881 5881 5881 5881 5881 5880 5880 5880
5900 5901 5902 5901 5901 5901 5901 5901 5901 5901 5901 5900 5901 5900 5899 5898 5896 5894 5893 5892 5891 5890 5889 5889 5888 5887 5887 5886 5886 5885 5885 5884 5884 5883 5883 5882 5882 5882 5881 5881 5881 5880 5880 5880 5880 5880 5879 5879 5878
5899 5900 5901 5900 5900 5899 5899 5900 5900 5900 5900 5899 5900 5899 5898 5898 5896 5894 5892 5891 5890 5889 5888 5887 5887 5886 5886 5885 5885 5884 5884 5883 5883 5882 5881 5881 5880 5880 5880 5880 5880 5879 5879 5879 5879 5879 5878 5877 5878
5898 5899 5899 5899 5899 5899 5899 5899 5899 5899 5899 5899 5898 5898 5897 5897 5895 5894 5892 5889 5888 5887 5887 5886 5885 5885 5884 5884 5883 5883 5882 5882 5881 5881 5880 5879 5879 5878 5878 5878 5878 5878 5878 5878 5878 5877 5877 5876 5877
5895 5898 5897 5898 5897 5897 5898 5898 5898 5898 5898 5897 5897 5896 5895 5895 5894 5892 5890 5889 5887 5887 5886 5885 5884 5884 5883 5882 5882 5881 5881 5880 5879 5879 5879 5878 5877 5877 5876 5876 5876 5876 5876 5876 5876 5876 5875 5875 5875
5893 5896 5895 5896 5896 5896 5896 5896 5897 5897 5896 5895 5895 5895 5894 5893 5892 5891 5890 5888 5887 5885 5885 5884 5883 5882 5881 5881 5880 5879 5879 5878 5877 5877 5877 5876 5876 5875 5874 5874 5874 5874 5874 5874 5874 5874 5873 5873 5874
5891 5893 5894 5894 5894 5894 5894 5894 5895 5894 5894 5894 5894 5893 5892 5892 5891 5890 5889 5887 5886 5884 5883 5882 5881 5880 5880 5879 5878 5877 5877 5876 5875 5875 5874 5874 5874 5873 5872 5872 5872 5872 5872 5872 5872 5871 5871 5871 5871
5888 5890 5891 5891 5892 5893 5893 5892 5893 5892 5893 5892 5892 5892 5891 5890 5889 5888 5887 5886 5884 5883 5882 5881 5880 5879 5878 5877 5876 5875 5875 5874 5873 5872 5872 5872 5871 5871 5870 5870 5869 5869 5870 5870 5870 5869 5869 5869 5869
5886 5887 5888 5888 5890 5891 5891 5891 5891 5891 5890 5891 5891 5890 5889 5888 5887 5886 5885 5884 5883 5881 5880 5879 5878 5877 5875 5874 5874 5873 5872 5871 5871 5870 5870 5869 5869 5868 5868 5868 5867 5867 5867 5867 5867 5867 5867 5867 5867
5883 5884 5885 5886 5887 5888 5888 5889 5889 5889 5888 5889 5889 5888 5887 5886 5885 5884 5883 5882 5881 5880 5878 5877 5876 5875 5874 5872 5871 5870 5870 5869 5868 5867 5867 5866 5866 5866 5865 5865 5865 5864 5864 5864 5864 5864 5865 5865 5865
5879 5880 5881 5883 5884 5885 5886 5887 5887 5886 5886 5886 5887 5886 5886 5884 5883 5882 5881 5880 5879 5878 5876 5875 5874 5872 5871 5870 5869 5868 5867 5866 5865 5865 5864 5864 5863 5863 5862 5862 5861 5861 5861 5861 5861 5861 5862 5862 5862
5876 5877 5879 5880 5881 5883 5884 5884 5884 5884 5884 5884 5884 5884 5884 5883 5882 5881 5879 5878 5877 5875 5874 5872 5871 5869 5868 5867 5866 5865 5864 5863 5862 5862 5861 5861 5860 5859 5859 5858 5858 5858 5858 5858 5859 5859 5859 5859 5860
5872 5874 5876 5877 5878 5879 5882 5882 5882 5881 5881 5882 5882 5882 5882 5881 5880 5879 5878 5876 5875 5873 5872 5870 5869 5867 5865 5864 5862 5862 5861 5860 5859 5859 5858 5858 5857 5856 5856 5855 5855 5855 5856 5856 5856 5856 5856 5857 5858
5869 5871 5872 5874 5875 5876 5877 5878 5879 5878 5878 5879 5879 5879 5879 5878 5878 5877 5875 5874 5872 5871 5869 5868 5866 5864 5862 5861 5859 5858 5857 5856 5856 5856 5855 5855 5854 5853 5853 5853 5853 5853 5853 5853 5853 5853 5854 5854 5855
5866 5867 5869 5870 5871 5872 5873 5874 5875 5875 5875 5875 5876 5876 5876 5875 5875 5874 5873 5872 5870 5869 5867 5865 5863 5861 5860 5858 5856 5855 5854 5854 5853 5852 5852 5852 5851 5850 5850 5850 5850 5850 5850 5850 5850 5850 5851 5851 5852
5861 5863 5865 5866 5867 5867 5868 5870 5870 5870 5871 5872 5872 5872 5872 5872 5871 5871 5870 5869 5868 5866 5864 5863 5861 5859 5858 5855 5853 5852 5852 5851 5850 5849 5848 5848 5848 5848 5847 5847 5847 5847 5847 5846 5846 5847 5847 5848 5848
5856 5859 5861 5863 5863 5864 5864 5865 5865 5866 5867 5868 5868 5868 5869 5869 5868 5867 5867 5866 5865 5863 5861 5860 5858 5856 5854 5852 5850 5849 5849 5848 5847 5846 5845 5845 5845 5844 5844 5844 5843 5843 5843 5843 5843 5843 5844 5844 5845
5852 5855 5857 5859 5859 5859 5860 5861 5862 5863 5863 5864 5864 5864 5865 5864 5864 5863 5863 5862 5861 5859 5858 5856 5854 5852 5851 5849 5847 5846 5845 5844 5843 5843 5842 5842 5842 5841 5840 5840 5840 5840 5840 5840 5840 5840 5840 5841 5841
5848 5851 5852 5853 5854 5855 5856 5856 5858 5858 5859 5859 5859 5860 5860 5859 5859 5859 5859 5858 5857 5856 5854 5852 5851 5849 5847 5845 5844 5843 5842 5841 5841 5840 5840 5839 5839 5838 5838 5837 5837 5837 5837 5837 5837 5837 5837 5837 5838
5844 5847 5848 5849 5849 5850 5851 5851 5853 5854 5855 5855 5855 5856 5855 5855 5855 5855 5855 5854 5853 5852 5850 5848 5847 5845 5843 5842 5841 5840 5839 5839 5838 5838 5837 5836 5836 5835 5835 5834 5834 5834 5834 5834 5834 5834 5834 5834 5834
5839 5841 5842 5843 5844 5845 5847 5847 5848 5849 5850 5851 5851 5851 5851 5851 5851 5851 5851 5850 5849 5847 5846 5845 5843 5841 5839 5838 5837 5837 5836 5836 5836 5835 5834 5834 5833 5832 5832 5831 5831 5831 5831 5831 5831 5831 5831 5831 5831
5832 5835 5836 5838 5839 5840 5843 5842 5844 5846 5846 5846 5846 5847 5847 5847 5848 5847 5847 5846 5844 5843 5842 5841 5839 5838 5836 5835 5834 5834 5834 5833 5833 5833 5832 5832 5831 5830 5829 5828 5828 5828 5828 5828 5828 5828 5828 5827 5827
5826 5829 5831 5833 5835 5837 5838 5837 5840 5841 5841 5842 5843 5843 5843 5843 5843 5842 5842 5842 5840 5839 5838 5837 5836 5835 5833 5832 5831 5831 5831 5831 5831 5830 5830 5829 5828 5827 5826 5826 5825 5825 5825 5825 5825 5825 5825 5824 5824
5820 5823 5826 5828 5830 5831 5832 5834 5835 5835 5836 5838 5839 5839 5838 5838 5838 5838 5838 5838 5836 5835 5835 5833 5832 5830 5829 5828 5828 5827 5828 5828 5828 5828 5827 5827 5826 5825 5824 5824 5823 5823 5823 5823 5822 5822 5822 5821 5821
5815 5818 5820 5822 5824 5825 5827 5829 5831 5831 5832 5833 5834 5834 5835 5835 5835 5834 5833 5833 5832 5831 5831 5829 5827 5825 5824 5823 5824 5824 5824 5825 5825 5825 5825 5825 5824 5823 5822 5822 5821 5821 5820 5820 5819 5819 5819 5818 5818
5809 5812 5813 5816 5818 5820 5822 5826 5826 5827 5828 5829 5830 5831 5831 5831 5831 5830 5829 5829 5828 5827 5826 5825 5823 5821 5821 5821 5821 5821 5822 5822 5823 5822 5823 5822 5822 5821 5821 5820 5819 5818 5818 5817 5817 5816 5816 5816 5815
5803 5805 5808 5810 5813 5815 5817 5822 5821 5822 5823 5824 5825 5826 5827 5827 5827 5826 5826 5825 5824 5823 5822 5821 5821 5819 5819 5818 5819 5819 5819 5820 5820 5820 5820 5820 5820 5819 5818 5818 5817 5816 5815 5815 5814 5814 5813 5813 5812